Regional Weather Roundup
Issued by NWS

Home | Current Version | Previous Version | Text Only | Print | Product List | Glossary On
Versions: 1 2 3 4 5 6 7 8 9 10 11 12 13 14 15 16 17 18 19 20 21 22 23 24 25 26 27 28 29 30 31 32 33 34 35 36 37 38 39 40 41 42 43 44 45 46 47 48 49 50
000
ASUS43 KLMK 230002
RWRKY
KENTUCKY REGIONAL WEATHER ROUNDUP
NATIONAL WEATHER SERVICE LOUISVILLE KY
800 PM EDT FRI MAY 22 2015

NOTE "FAIR" INDICATES FEW OR NO CLOUDS BELOW 12,000 FEET
WITH NO SIGNIFICANT WEATHER AND/OR OBSTRUCTIONS TO VISIBILITY.

KYZ001>023-026-027-061>063-070>075-230100-
WESTERN AND SOUTH CENTRAL KENTUCKY

CITY           SKY/WX    TMP DP  RH WIND       PRES   REMARKS
PADUCAH        PTSUNNY   70  50  49 CALM      30.23F
HENDERSON      CLOUDY    72  54  53 SW5       30.23F
OWENSBORO      CLOUDY    71  54  55 W5        30.25S
HOPKINSVILLE   CLEAR     69  51  53 N2        30.26R
BOWLING GREEN  CLOUDY    71  48  43 SE3       30.27R
GLASGOW        NOT AVBL
$$

KYZ024-025-028>034-038-045-046-053-230100-
NORTH CENTRAL KENTUCKY

CITY           SKY/WX    TMP DP  RH WIND       PRES   REMARKS
LOUISVILLE/SDF MOCLDY    71  47  42 NW7       30.24R
LOUISVILLE/LOU MOCLDY    72  45  37 W7        30.24R
FORT KNOX      MOCLDY    67  52  57 W2        30.24S
$$

KYZ035>037-039>044-047>052-055>060-089>105-230100-
NORTHEAST KENTUCKY

CITY           SKY/WX    TMP DP  RH WIND       PRES   REMARKS
LEXINGTON      MOCLDY    69  48  47 SW5       30.25S
COVINGTON      CLOUDY    70  46  42 W6        30.22S
FRANKFORT      CLOUDY    70  45  40 W3        30.24R
$$

KYZ054-064>069-076>088-106>120-230100-
SOUTHEAST KENTUCKY

CITY           SKY/WX    TMP DP  RH WIND       PRES   REMARKS
JACKSON        MOCLDY    65  43  44 CALM      30.28R
LONDON         PTCLDY    70  37  29 NE3       30.27S
SOMERSET       NOT AVBL
MIDDLESBORO    NOT AVBL
MONTICELLO     CLEAR     71  45  39 CALM      30.29S
$$




USA.gov is the U.S. government's official web portal to all federal, state and local government web resources and services.